{"data":{"norad_id":57416,"intl_designator":"2023-102N","name":"STARLINK-30224","alt_names":[],"object_type":"PAYLOAD","status":"ACTIVE","operator":null,"country":"US","launch_date":"2023-07-20","launch_site_code":"AFWTR","launch_vehicle":null,"mission":null,"orbit_class":"UNKNOWN","rcs_meters":null,"size_class":null,"mass_kg":null,"dimensions":null,"purposes":["comms"],"wikipedia_slug":null,"has_3d_model":false,"image_url":null,"decayed_at":null,"tle_current":{"epoch":"2026-09-20T22:00:03.000096Z","epoch_age_seconds":92033,"freshness":"FRESH","line1":"1 57416U 23102N   26263.91670139  .00846725  00000+0  68284-2 0  9997","line2":"2 57416  42.9992 217.9154 0001773 274.2374 339.5333 15.67896682  5749","mean_motion":15.67896682,"eccentricity":0.0001773,"inclination_deg":42.9992,"raan_deg":217.9154,"arg_perigee_deg":274.2374,"mean_anomaly_deg":339.5333,"bstar":0.0068284,"rev_number":574,"period_min":91.842786360332,"perigee_km":363.72522869443,"apogee_km":366.11631698068,"semimajor_km":6743.0577728376,"source":"CELESTRAK","updated_at":"2026-09-21T09:00:33.625124Z"}}}